Regional Weather Roundup
Issued by NWS Goodland, KS

Home | Current Version | Previous Version | Graphics & Text | Print | Product List | Glossary On
Versions: 1 2 3 4 5 6 7 8 9 10 11 12 13 14 15 16 17 18 19 20 21 22 23 24 25 26 27 28 29 30 31 32 33 34 35 36 37 38 39 40 41 42 43 44 45 46 47 48 49 50
000
ASUS43 KGLD 300359
RWRGLD

GOODLAND FORECAST AREA HOURLY WEATHER ROUNDUP
NATIONAL WEATHER SERVICE GOODLAND KS
1000 PM MDT SUN MAR 29 2015

...OFFICIAL OBSERVATIONS...

CITY           SKY/WX    TMP DP  RH WIND       PRES   REMARKS
GOODLAND KS    CLEAR     44  20  38 S10       30.21R
HILL CITY KS   CLEAR     36  16  44 CALM      30.19S
IMPERIAL NEB     N/A     44  18  35 S6        30.17R
MCCOOK NEB     CLEAR     47  15  27 SE6       30.17S
AKRON CO       CLEAR     48  22  35 S14       30.17S
BURLINGTON CO  CLEAR     42  20  41 S13       30.21S
LIMON CO       CLEAR     40  23  50 SE6       30.22S
$$

...UNOFFICIAL OBSERVATIONS...

CITY           SKY/WX    TMP DP  RH WIND       PRES   REMARKS
LENORA KS        N/A     49  32  52 MISG        N/A
$$


USA.gov is the U.S. government's official web portal to all federal, state and local government web resources and services.